When you browse on this site, cookies collect data to enhance your experience and personalize the content and advertising you see.
Visit our Privacy Policy to learn more. By continuing to use the site, you agree to this use of cookies and data.
  • In Romania
  • List of Countries
  • For 7 days
  • Water Temperature
  • Satellite Maps
  • Weather Map
  • Weather Widgets
  • user-avatar
    Login

    Hourly Weather Arrifana

    Today, 24 July, Wednesday

    Time Temperature Precipitation Wind Pressure Humidity
    00:00 +19°C° 0 mm 1 mps 745 mmHg 75%
    01:00 +19°C° 0 mm 1 mps 744 mmHg 75%
    02:00 +18°C° 0 mm 1 mps 744 mmHg 75%
    03:00 +19°C° 0 mm 1 mps 744 mmHg 74%
    04:00 +17°C° 0 mm 0 mps 744 mmHg 73%
    05:00 +17°C° 0 mm 0 mps 744 mmHg 72%
    06:00 +22°C° 0 mm 1 mps 744 mmHg 62%
    07:00 +24°C° 0 mm 1 mps 744 mmHg 52%
    08:00 +27°C° 0 mm 1 mps 744 mmHg 43%
    09:00 +29°C° 0 mm 2 mps 744 mmHg 39%
    10:00 +30°C° 0 mm 2 mps 744 mmHg 35%
    11:00 +33°C° 0 mm 3 mps 744 mmHg 30%
    12:00 +31°C° 0 mm 3 mps 743 mmHg 33%
    13:00 +30°C° 0 mm 3 mps 743 mmHg 37%
    14:00 +30°C° 0 mm 3 mps 743 mmHg 40%
    15:00 +29°C° 0 mm 3 mps 743 mmHg 45%
    16:00 +28°C° 0 mm 2 mps 743 mmHg 50%
    17:00 +27°C° 0 mm 2 mps 743 mmHg 55%
    18:00 +25°C° 0 mm 1 mps 743 mmHg 66%
    19:00 +22°C° 0 mm 1 mps 743 mmHg 77%
    20:00 +18°C° 0 mm 0 mps 743 mmHg 89%
    21:00 +18°C° 0 mm 0 mps 743 mmHg 89%
    22:00 +20°C° 0 mm 1 mps 743 mmHg 90%
    23:00 +20°C° 0 mm 1 mps 743 mmHg 90%

    Tomorrow, 25 July, Thursday

    Time Temperature Precipitation Wind Pressure Humidity
    00:00 +20°C° 0 mm 1 mps 743 mmHg 90%
    01:00 +19°C° 0 mm 1 mps 743 mmHg 90%
    02:00 +19°C° 0 mm 1 mps 743 mmHg 91%
    03:00 +19°C° 0 mm 1 mps 743 mmHg 91%
    04:00 +19°C° 0 mm 1 mps 743 mmHg 92%
    05:00 +18°C° 0 mm 2 mps 743 mmHg 93%
    06:00 +20°C° 0 mm 2 mps 743 mmHg 86%
    07:00 +21°C° 0 mm 2 mps 743 mmHg 79%
    08:00 +24°C° 0 mm 2 mps 744 mmHg 72%
    09:00 +25°C° 0 mm 3 mps 744 mmHg 64%
    10:00 +27°C° 0 mm 3 mps 744 mmHg 56%
    11:00 +29°C° 0 mm 4 mps 744 mmHg 48%
    12:00 +28°C° 0 mm 4 mps 744 mmHg 51%
    13:00 +28°C° 0 mm 5 mps 743 mmHg 55%
    14:00 +27°C° 0 mm 5 mps 743 mmHg 58%
    15:00 +25°C° 0 mm 4 mps 743 mmHg 65%
    16:00 +24°C° 0 mm 3 mps 744 mmHg 72%
    17:00 +21°C° 0 mm 3 mps 744 mmHg 80%
    18:00 +20°C° 0 mm 2 mps 744 mmHg 82%
    19:00 +19°C° 0 mm 2 mps 745 mmHg 85%
    20:00 +19°C° 0 mm 2 mps 745 mmHg 88%
    21:00 +18°C° 0 mm 2 mps 745 mmHg 89%
    22:00 +17°C° 0 mm 2 mps 745 mmHg 89%
    23:00 +16°C° 0 mm 2 mps 745 mmHg 90%

    Day after tomorrow, 26 July, Friday

    Time Temperature Precipitation Wind Pressure Humidity
    00:00 +16°C° 0 mm 2 mps 745 mmHg 91%
    01:00 +16°C° 0 mm 1 mps 745 mmHg 91%
    02:00 +15°C° 0 mm 1 mps 745 mmHg 92%
    03:00 +15°C° 0 mm 1 mps 745 mmHg 92%
    04:00 +15°C° 0 mm 1 mps 745 mmHg 92%
    05:00 +15°C° 0 mm 1 mps 745 mmHg 92%
    06:00 +18°C° 0 mm 1 mps 745 mmHg 83%
    07:00 +19°C° 0 mm 2 mps 745 mmHg 74%
    08:00 +21°C° 0 mm 3 mps 746 mmHg 65%
    09:00 +22°C° 0 mm 4 mps 746 mmHg 62%
    10:00 +22°C° 0 mm 4 mps 745 mmHg 59%
    11:00 +23°C° 0 mm 5 mps 745 mmHg 56%
    12:00 +23°C° 0 mm 6 mps 745 mmHg 55%
    13:00 +23°C° 0 mm 6 mps 745 mmHg 54%
    14:00 +23°C° 0 mm 6 mps 745 mmHg 52%
    15:00 +22°C° 0 mm 6 mps 745 mmHg 54%
    16:00 +21°C° 0 mm 6 mps 745 mmHg 56%
    17:00 +20°C° 0 mm 5 mps 745 mmHg 58%
    18:00 +19°C° 0 mm 5 mps 745 mmHg 65%
    19:00 +17°C° 0 mm 4 mps 746 mmHg 72%
    20:00 +16°C° 0 mm 3 mps 746 mmHg 79%
    21:00 +14°C° 0 mm 3 mps 746 mmHg 82%
    22:00 +15°C° 0 mm 2 mps 746 mmHg 84%
    23:00 +15°C° 0 mm 2 mps 746 mmHg 87%

    27 July, Saturday

    Time Temperature Precipitation Wind Pressure Humidity
    00:00 +15°C° 0 mm 2 mps 745 mmHg 88%
    01:00 +14°C° 0 mm 1 mps 745 mmHg 89%
    02:00 +14°C° 0 mm 1 mps 745 mmHg 90%
    03:00 +15°C° 0 mm 1 mps 745 mmHg 88%
    04:00 +14°C° 0 mm 0 mps 745 mmHg 86%
    05:00 +14°C° 0 mm 0 mps 744 mmHg 85%
    06:00 +16°C° 0.1 mm 1 mps 744 mmHg 79%
    07:00 +18°C° 0.1 mm 1 mps 744 mmHg 74%
    08:00 +19°C° 0.1 mm 1 mps 744 mmHg 68%
    09:00 +20°C° 0 mm 2 mps 744 mmHg 66%
    10:00 +21°C° 0 mm 2 mps 744 mmHg 63%
    11:00 +23°C° 0 mm 2 mps 744 mmHg 60%
    12:00 +23°C° 0 mm 2 mps 743 mmHg 64%
    13:00 +21°C° 0 mm 2 mps 743 mmHg 68%
    14:00 +21°C° 0 mm 2 mps 743 mmHg 72%
    15:00 +21°C° 0 mm 2 mps 743 mmHg 74%
    16:00 +21°C° 0 mm 2 mps 743 mmHg 76%
    17:00 +22°C° 0 mm 1 mps 742 mmHg 78%
    18:00 +21°C° 0 mm 1 mps 743 mmHg 82%
    19:00 +20°C° 0 mm 1 mps 743 mmHg 85%
    20:00 +17°C° 0 mm 0 mps 743 mmHg 89%
    21:00 +19°C° 0 mm 1 mps 743 mmHg 90%
    22:00 +18°C° 0 mm 1 mps 743 mmHg 91%
    23:00 +18°C° 0 mm 1 mps 743 mmHg 91%

    28 July, Sunday

    Time Temperature Precipitation Wind Pressure Humidity
    00:00 +18°C° 0 mm 1 mps 743 mmHg 91%
    01:00 +16°C° 0 mm 1 mps 743 mmHg 92%
    02:00 +16°C° 0 mm 1 mps 742 mmHg 92%
    03:00 +16°C° 0 mm 1 mps 743 mmHg 92%
    04:00 +16°C° 0 mm 1 mps 743 mmHg 91%
    05:00 +16°C° 0 mm 2 mps 743 mmHg 91%
    06:00 +20°C° 0 mm 1 mps 743 mmHg 79%
    07:00 +22°C° 0 mm 1 mps 743 mmHg 67%
    08:00 +25°C° 0 mm 1 mps 743 mmHg 55%
    09:00 +27°C° 0 mm 2 mps 743 mmHg 49%
    10:00 +28°C° 0 mm 3 mps 743 mmHg 44%
    11:00 +29°C° 0 mm 4 mps 743 mmHg 39%
    12:00 +29°C° 0 mm 4 mps 742 mmHg 39%
    13:00 +29°C° 0 mm 5 mps 742 mmHg 40%
    14:00 +28°C° 0 mm 5 mps 742 mmHg 41%
    15:00 +27°C° 0 mm 5 mps 742 mmHg 43%
    16:00 +26°C° 0 mm 5 mps 742 mmHg 45%
    17:00 +25°C° 0 mm 5 mps 742 mmHg 48%
    18:00 +22°C° 0 mm 4 mps 742 mmHg 55%
    19:00 +20°C° 0 mm 3 mps 742 mmHg 63%
    20:00 +18°C° 0 mm 3 mps 743 mmHg 70%
    21:00 +18°C° 0 mm 2 mps 743 mmHg 73%
    22:00 +17°C° 0 mm 2 mps 743 mmHg 76%
    23:00 +18°C° 0 mm 1 mps 743 mmHg 79%

    29 July, Monday

    Time Temperature Precipitation Wind Pressure Humidity
    00:00 +16°C° 0 mm 1 mps 743 mmHg 79%
    01:00 +16°C° 0 mm 1 mps 743 mmHg 78%
    02:00 +16°C° 0 mm 1 mps 742 mmHg 78%
    03:00 +16°C° 0 mm 1 mps 743 mmHg 78%
    04:00 +16°C° 0 mm 1 mps 743 mmHg 78%
    05:00 +16°C° 0 mm 1 mps 743 mmHg 79%
    06:00 +20°C° 0 mm 1 mps 743 mmHg 69%
    07:00 +22°C° 0 mm 1 mps 743 mmHg 60%
    08:00 +25°C° 0 mm 2 mps 744 mmHg 50%
    09:00 +26°C° 0 mm 2 mps 744 mmHg 47%
    10:00 +27°C° 0 mm 3 mps 744 mmHg 43%
    11:00 +28°C° 0 mm 4 mps 744 mmHg 39%
    12:00 +28°C° 0 mm 4 mps 744 mmHg 38%
    13:00 +28°C° 0 mm 4 mps 743 mmHg 36%
    14:00 +28°C° 0 mm 4 mps 743 mmHg 35%
    15:00 +27°C° 0 mm 4 mps 743 mmHg 45%
    16:00 +25°C° 0 mm 4 mps 743 mmHg 55%
    17:00 +24°C° 0 mm 3 mps 743 mmHg 65%
    18:00 +22°C° 0 mm 3 mps 744 mmHg 73%
    19:00 +21°C° 0 mm 3 mps 745 mmHg 81%
    20:00 +20°C° 0 mm 3 mps 745 mmHg 89%
    21:00 +19°C° 0 mm 3 mps 745 mmHg 89%
    22:00 +19°C° 0 mm 3 mps 745 mmHg 89%
    23:00 +19°C° 0 mm 3 mps 745 mmHg 89%
    Show more